BEIDOU-3 M2 (C20)

Last updated on Sun Jun 21 2026 00:03:31 GMT+0000 (Coordinated Universal Time)

1 43002U 17069B 26170.75658747 -.00000066 00000+0 00000+0 0 9998 2 43002 56.6931 63.0362 0009109 351.9115 8.1147 1.86230559 58648
UTC large
Height (km)
Speed (km/s)
/
Latitude / Longitude
Inclination (degrees)
Orbital Period (minutes)
Azimuth
Elevation
Range (km)
Doppler Factor

Next 0 passes for location: London (51.5072 / 0.1276)

No passes found over London.
BEIDOU-3 M2 (C20)